sat.trackr.live / text

‹ back to catalog

STARLINK-37701

NORAD 69306 · 2026-119L

PAYLOAD ACTIVE UNKNOWN

§ Identity

Operator
Country
US
Launch date
2026-05-30
Launch site
AFWTR
Launch vehicle
Mass (kg)
RCS (m²)

Purposes: comms

External: N2YO · Heavens-Above · Gunter

§ Orbital elements

Epoch: 2026-09-20T01:07:03.967680Z

Period
93.91 min
Inclination
97.2860°
Eccentricity
0.0001846
Mean motion
15.33460632 rev/d
Perigee alt
464.2 km
Apogee alt
466.8 km
Semi-major
6,843.6 km
B*
3.6665e-4
RAAN
287.7847°
Arg perigee
111.5947°
Mean anomaly
248.5493°
Rev number
1,859

§ Raw data

STARLINK-377011 69306U 26119L   26263.04657370  .00011786  00000+0  36665-3 0  99952 69306  97.2860 287.7847 0001846 111.5947 248.5493 15.33460632 18599

JSON: /api/v1/satellites/69306 · /tle

For live sub-satellite position, see the globe view (requires WebGL).

§ Visibility from observer

Set your observer location to see the next 7 days of passes ≥ 10°. The values pass through the URL so the page stays shareable.

No JS? Fill the form by hand. The geolocation button needs JavaScript.